﻿測定場所 (Monitoring sites),日付 (Measurement date),時間 (Measurement time),線量率 最大値 (max) μGy/h,線量率 最小値 (min) μGy/h,線量率 平均値 (average) μGy/h,
足立 (Adachi),2013-03-17,23:01～24:00,0.0571,0.0515,0.0544,
足立 (Adachi),2013-03-17,22:01～23:00,0.0574,0.0506,0.0539,
足立 (Adachi),2013-03-17,21:01～22:00,0.0578,0.0511,0.0542,
足立 (Adachi),2013-03-17,20:01～21:00,0.0571,0.0490,0.0538,
足立 (Adachi),2013-03-17,19:01～20:00,0.0570,0.0501,0.0537,
足立 (Adachi),2013-03-17,18:01～19:00,0.0595,0.0504,0.0535,
足立 (Adachi),2013-03-17,17:01～18:00,0.0572,0.0499,0.0536,
足立 (Adachi),2013-03-17,16:01～17:00,0.0570,0.0486,0.0542,
足立 (Adachi),2013-03-17,15:01～16:00,0.0581,0.0503,0.0535,
足立 (Adachi),2013-03-17,14:01～15:00,0.0581,0.0512,0.0541,
足立 (Adachi),2013-03-17,13:01～14:00,0.0565,0.0510,0.0540,
足立 (Adachi),2013-03-17,12:01～13:00,0.0581,0.0494,0.0536,
足立 (Adachi),2013-03-17,11:01～12:00,0.0572,0.0504,0.0539,
足立 (Adachi),2013-03-17,10:01～11:00,0.0580,0.0513,0.0544,
足立 (Adachi),2013-03-17,09:01～10:00,0.0587,0.0502,0.0547,
足立 (Adachi),2013-03-17,08:01～09:00,0.0575,0.0509,0.0539,
足立 (Adachi),2013-03-17,07:01～08:00,0.0563,0.0502,0.0536,
足立 (Adachi),2013-03-17,06:01～07:00,0.0578,0.0510,0.0542,
足立 (Adachi),2013-03-17,05:01～06:00,0.0578,0.0514,0.0543,
足立 (Adachi),2013-03-17,04:01～05:00,0.0575,0.0514,0.0542,
足立 (Adachi),2013-03-17,03:01～04:00,0.0569,0.0504,0.0541,
足立 (Adachi),2013-03-17,02:01～03:00,0.0587,0.0508,0.0542,
足立 (Adachi),2013-03-17,01:01～02:00,0.0582,0.0499,0.0535,
足立 (Adachi),2013-03-17,00:01～01:00,0.0587,0.0502,0.0536,
足立 (Adachi),2013-03-16,23:01～24:00,0.0573,0.0506,0.0540,
足立 (Adachi),2013-03-16,22:01～23:00,0.0570,0.0502,0.0541,
足立 (Adachi),2013-03-16,21:01～22:00,0.0575,0.0506,0.0543,
足立 (Adachi),2013-03-16,20:01～21:00,0.0575,0.0509,0.0541,
足立 (Adachi),2013-03-16,19:01～20:00,0.0579,0.0484,0.0538,
足立 (Adachi),2013-03-16,18:01～19:00,0.0564,0.0504,0.0531,
足立 (Adachi),2013-03-16,17:01～18:00,0.0559,0.0505,0.0534,
足立 (Adachi),2013-03-16,16:01～17:00,0.0556,0.0502,0.0530,
足立 (Adachi),2013-03-16,15:01～16:00,0.0569,0.0503,0.0534,
足立 (Adachi),2013-03-16,14:01～15:00,0.0582,0.0504,0.0535,
足立 (Adachi),2013-03-16,13:01～14:00,0.0571,0.0497,0.0536,
足立 (Adachi),2013-03-16,12:01～13:00,0.0572,0.0512,0.0539,
足立 (Adachi),2013-03-16,11:01～12:00,0.0573,0.0509,0.0543,
足立 (Adachi),2013-03-16,10:01～11:00,0.0587,0.0505,0.0544,
足立 (Adachi),2013-03-16,09:01～10:00,0.0583,0.0500,0.0547,
足立 (Adachi),2013-03-16,08:01～09:00,0.0573,0.0501,0.0539,
足立 (Adachi),2013-03-16,07:01～08:00,0.0564,0.0497,0.0529,
足立 (Adachi),2013-03-16,06:01～07:00,0.0573,0.0514,0.0539,
足立 (Adachi),2013-03-16,05:01～06:00,0.0585,0.0500,0.0539,
足立 (Adachi),2013-03-16,04:01～05:00,0.0572,0.0510,0.0537,
足立 (Adachi),2013-03-16,03:01～04:00,0.0569,0.0500,0.0536,
足立 (Adachi),2013-03-16,02:01～03:00,0.0573,0.0500,0.0540,
足立 (Adachi),2013-03-16,01:01～02:00,0.0573,0.0510,0.0541,
足立 (Adachi),2013-03-16,00:01～01:00,0.0575,0.0502,0.0537,
足立 (Adachi),2013-03-15,23:01～24:00,0.0572,0.0498,0.0531,
足立 (Adachi),2013-03-15,22:01～23:00,0.0559,0.0488,0.0532,
足立 (Adachi),2013-03-15,21:01～22:00,0.0561,0.0506,0.0534,
足立 (Adachi),2013-03-15,20:01～21:00,0.0574,0.0501,0.0532,
足立 (Adachi),2013-03-15,19:01～20:00,0.0559,0.0489,0.0530,
足立 (Adachi),2013-03-15,18:01～19:00,0.0560,0.0500,0.0530,
足立 (Adachi),2013-03-15,17:01～18:00,0.0554,0.0501,0.0528,
足立 (Adachi),2013-03-15,16:01～17:00,0.0573,0.0477,0.0528,
足立 (Adachi),2013-03-15,15:01～16:00,0.0563,0.0487,0.0527,
足立 (Adachi),2013-03-15,14:01～15:00,0.0557,0.0486,0.0517,
足立 (Adachi),2013-03-15,13:01～14:00,0.0547,0.0474,0.0508,
足立 (Adachi),2013-03-15,12:01～13:00,0.0554,0.0469,0.0522,
足立 (Adachi),2013-03-15,11:01～12:00,0.0562,0.0491,0.0525,
足立 (Adachi),2013-03-15,10:01～11:00,0.0584,0.0495,0.0528,
足立 (Adachi),2013-03-15,09:01～10:00,0.0564,0.0496,0.0527,
足立 (Adachi),2013-03-15,08:01～09:00,0.0560,0.0488,0.0526,
足立 (Adachi),2013-03-15,07:01～08:00,0.0550,0.0495,0.0519,
足立 (Adachi),2013-03-15,06:01～07:00,0.0563,0.0478,0.0525,
足立 (Adachi),2013-03-15,05:01～06:00,0.0573,0.0494,0.0526,
足立 (Adachi),2013-03-15,04:01～05:00,0.0569,0.0485,0.0521,
足立 (Adachi),2013-03-15,03:01～04:00,0.0554,0.0493,0.0524,
足立 (Adachi),2013-03-15,02:01～03:00,0.0558,0.0495,0.0526,
足立 (Adachi),2013-03-15,01:01～02:00,0.0553,0.0490,0.0525,
足立 (Adachi),2013-03-15,00:01～01:00,0.0553,0.0500,0.0528,
足立 (Adachi),2013-03-14,23:01～24:00,0.0554,0.0488,0.0522,
足立 (Adachi),2013-03-14,22:01～23:00,0.0564,0.0488,0.0527,
足立 (Adachi),2013-03-14,21:01～22:00,0.0563,0.0487,0.0528,
足立 (Adachi),2013-03-14,20:01～21:00,0.0549,0.0496,0.0526,
足立 (Adachi),2013-03-14,19:01～20:00,0.0565,0.0485,0.0521,
足立 (Adachi),2013-03-14,18:01～19:00,0.0554,0.0492,0.0522,
足立 (Adachi),2013-03-14,17:01～18:00,0.0553,0.0482,0.0522,
足立 (Adachi),2013-03-14,16:01～17:00,0.0555,0.0494,0.0527,
足立 (Adachi),2013-03-14,15:01～16:00,0.0567,0.0504,0.0527,
足立 (Adachi),2013-03-14,14:01～15:00,0.0557,0.0495,0.0525,
足立 (Adachi),2013-03-14,13:01～14:00,0.0556,0.0493,0.0526,
足立 (Adachi),2013-03-14,12:01～13:00,0.0539,0.0484,0.0510,
足立 (Adachi),2013-03-14,11:01～12:00,0.0549,0.0488,0.0518,
足立 (Adachi),2013-03-14,10:01～11:00,0.0558,0.0479,0.0518,
足立 (Adachi),2013-03-14,09:01～10:00,0.0572,0.0498,0.0538,
足立 (Adachi),2013-03-14,08:01～09:00,0.0724,0.0561,0.0632,
足立 (Adachi),2013-03-14,07:01～08:00,0.0886,0.0696,0.0779,
足立 (Adachi),2013-03-14,06:01～07:00,0.0784,0.0644,0.0709,
足立 (Adachi),2013-03-14,05:01～06:00,0.0948,0.0707,0.0816,
足立 (Adachi),2013-03-14,04:01～05:00,0.0879,0.0699,0.0761,
足立 (Adachi),2013-03-14,03:01～04:00,0.0732,0.0560,0.0636,
足立 (Adachi),2013-03-14,02:01～03:00,0.0579,0.0517,0.0542,
足立 (Adachi),2013-03-14,01:01～02:00,0.0587,0.0529,0.0557,
足立 (Adachi),2013-03-14,00:01～01:00,0.0641,0.0530,0.0587,
足立 (Adachi),2013-03-13,23:01～24:00,0.0678,0.0578,0.0635,
足立 (Adachi),2013-03-13,22:01～23:00,0.0624,0.0553,0.0586,
足立 (Adachi),2013-03-13,21:01～22:00,0.0584,0.0526,0.0557,
足立 (Adachi),2013-03-13,20:01～21:00,0.0583,0.0504,0.0550,
足立 (Adachi),2013-03-13,19:01～20:00,0.0585,0.0504,0.0540,
足立 (Adachi),2013-03-13,18:01～19:00,0.0575,0.0509,0.0540,
足立 (Adachi),2013-03-13,17:01～18:00,0.0588,0.0509,0.0541,
足立 (Adachi),2013-03-13,16:01～17:00,0.0566,0.0508,0.0540,
足立 (Adachi),2013-03-13,15:01～16:00,0.0577,0.0512,0.0539,
足立 (Adachi),2013-03-13,14:01～15:00,0.0574,0.0499,0.0539,
足立 (Adachi),2013-03-13,13:01～14:00,0.0567,0.0498,0.0538,
足立 (Adachi),2013-03-13,12:01～13:00,0.0568,0.0498,0.0537,
足立 (Adachi),2013-03-13,11:01～12:00,0.0571,0.0510,0.0540,
足立 (Adachi),2013-03-13,10:01～11:00,0.0585,0.0516,0.0545,
足立 (Adachi),2013-03-13,09:01～10:00,0.0571,0.0500,0.0544,
足立 (Adachi),2013-03-13,08:01～09:00,0.0582,0.0517,0.0543,
足立 (Adachi),2013-03-13,07:01～08:00,0.0570,0.0511,0.0542,
足立 (Adachi),2013-03-13,06:01～07:00,0.0570,0.0505,0.0543,
足立 (Adachi),2013-03-13,05:01～06:00,0.0588,0.0517,0.0552,
足立 (Adachi),2013-03-13,04:01～05:00,0.0568,0.0523,0.0548,
足立 (Adachi),2013-03-13,03:01～04:00,0.0583,0.0523,0.0548,
足立 (Adachi),2013-03-13,02:01～03:00,0.0585,0.0521,0.0546,
足立 (Adachi),2013-03-13,01:01～02:00,0.0573,0.0512,0.0543,
足立 (Adachi),2013-03-13,00:01～01:00,0.0582,0.0514,0.0548,
足立 (Adachi),2013-03-12,23:01～24:00,0.0575,0.0520,0.0548,
足立 (Adachi),2013-03-12,22:01～23:00,0.0583,0.0505,0.0547,
足立 (Adachi),2013-03-12,21:01～22:00,0.0567,0.0492,0.0545,
足立 (Adachi),2013-03-12,20:01～21:00,0.0575,0.0515,0.0543,
足立 (Adachi),2013-03-12,19:01～20:00,0.0572,0.0510,0.0539,
足立 (Adachi),2013-03-12,18:01～19:00,0.0581,0.0507,0.0540,
足立 (Adachi),2013-03-12,17:01～18:00,0.0569,0.0505,0.0536,
足立 (Adachi),2013-03-12,16:01～17:00,0.0581,0.0511,0.0545,
足立 (Adachi),2013-03-12,15:01～16:00,0.0579,0.0510,0.0548,
足立 (Adachi),2013-03-12,14:01～15:00,0.0576,0.0507,0.0542,
足立 (Adachi),2013-03-12,13:01～14:00,0.0568,0.0506,0.0543,
足立 (Adachi),2013-03-12,12:01～13:00,0.0581,0.0514,0.0550,
足立 (Adachi),2013-03-12,11:01～12:00,0.0578,0.0520,0.0551,
足立 (Adachi),2013-03-12,10:01～11:00,0.0598,0.0527,0.0556,
足立 (Adachi),2013-03-12,09:01～10:00,0.0598,0.0508,0.0554,
足立 (Adachi),2013-03-12,08:01～09:00,0.0579,0.0510,0.0547,
足立 (Adachi),2013-03-12,07:01～08:00,0.0577,0.0525,0.0545,
足立 (Adachi),2013-03-12,06:01～07:00,0.0576,0.0506,0.0543,
足立 (Adachi),2013-03-12,05:01～06:00,0.0585,0.0505,0.0543,
足立 (Adachi),2013-03-12,04:01～05:00,0.0578,0.0516,0.0542,
足立 (Adachi),2013-03-12,03:01～04:00,0.0579,0.0516,0.0543,
足立 (Adachi),2013-03-12,02:01～03:00,0.0572,0.0513,0.0545,
足立 (Adachi),2013-03-12,01:01～02:00,0.0575,0.0511,0.0544,
足立 (Adachi),2013-03-12,00:01～01:00,0.0588,0.0526,0.0548,
足立 (Adachi),2013-03-11,23:01～24:00,0.0578,0.0495,0.0543,
足立 (Adachi),2013-03-11,22:01～23:00,0.0583,0.0508,0.0540,
足立 (Adachi),2013-03-11,21:01～22:00,0.0570,0.0506,0.0540,
足立 (Adachi),2013-03-11,20:01～21:00,0.0588,0.0486,0.0540,
足立 (Adachi),2013-03-11,19:01～20:00,0.0572,0.0508,0.0535,
足立 (Adachi),2013-03-11,18:01～19:00,0.0565,0.0498,0.0532,
足立 (Adachi),2013-03-11,17:01～18:00,0.0565,0.0503,0.0535,
足立 (Adachi),2013-03-11,16:01～17:00,0.0597,0.0511,0.0548,
足立 (Adachi),2013-03-11,15:01～16:00,0.0585,0.0509,0.0543,
足立 (Adachi),2013-03-11,14:01～15:00,0.0562,0.0497,0.0534,
足立 (Adachi),2013-03-11,13:01～14:00,0.0576,0.0494,0.0545,
足立 (Adachi),2013-03-11,12:01～13:00,0.0592,0.0502,0.0541,
足立 (Adachi),2013-03-11,11:01～12:00,0.0573,0.0513,0.0542,
足立 (Adachi),2013-03-11,10:01～11:00,0.0568,0.0512,0.0543,
足立 (Adachi),2013-03-11,09:01～10:00,0.0577,0.0496,0.0541,
足立 (Adachi),2013-03-11,08:01～09:00,0.0576,0.0507,0.0539,
足立 (Adachi),2013-03-11,07:01～08:00,0.0573,0.0487,0.0532,
足立 (Adachi),2013-03-11,06:01～07:00,0.0565,0.0502,0.0537,
足立 (Adachi),2013-03-11,05:01～06:00,0.0573,0.0501,0.0538,
足立 (Adachi),2013-03-11,04:01～05:00,0.0577,0.0503,0.0540,
足立 (Adachi),2013-03-11,03:01～04:00,0.0571,0.0511,0.0539,
足立 (Adachi),2013-03-11,02:01～03:00,0.0562,0.0512,0.0536,
足立 (Adachi),2013-03-11,01:01～02:00,0.0576,0.0504,0.0545,
足立 (Adachi),2013-03-11,00:01～01:00,0.0575,0.0509,0.0544,
